Location: Unspecified
(0.0000°N, 0.0000°E)
Time: 06:02:03
(UTC+00:00)

Vanguard 2 - Pass Details

Date: 17 December 2017
Orbit: 553 x 2939 km, 32.9° (Epoch: 18 July)

Event Time Altitude Azimuth Distance (km) Brightness Sun altitude
Exits shadow 00:45:54 13° 157° (SSE) 3,656 11.2 -63.7°
Drops below altitude 10° 00:47:07 10° 153° (SSE) 3,996 11.4 -63.5°
Sets 00:52:16 0° 140° (SE) 5,476 12.3 -62.9°
